Regional Weather Roundup
Issued by NWS

Home | Current Version | Previous Version | Text Only | Print | Product List | Glossary Off
Versions: 1 2 3 4 5 6 7 8 9 10 11 12 13 14 15 16 17 18 19 20 21 22 23 24 25 26 27 28 29 30 31 32 33 34 35 36 37 38 39 40 41 42 43 44 45 46 47 48 49 50

000
ASUS43 KLSX 241007
RWRMO

WEATHER SUMMARY FOR MISSOURI
NATIONAL WEATHER SERVICE SPRINGFIELD MO
500 AM CDT SUN JUL 24 2016

NOTE: "FAIR" INDICATES FEW OR NO CLOUDS BELOW 12,000 FEET WITH NO
       SIGNIFICANT WEATHER AND/OR OBSTRUCTIONS TO VISIBILITY.
       CURRENT SKY AND/OR WEATHER CONDITIONS ARE NOT AVAILABLE FOR
       CHILLICOTHE AND FARMINGTON.

MOZ001>031-035>038-043-044-053-054-241100-
...NORTHERN AND WESTERN MISSOURI...

CITY           SKY/WX    TMP DP  RH WIND       PRES   REMARKS
KANSAS CTY INT PTCLDY    76  71  85 S8        29.88R
KANSAS C DTWN  CLEAR     84  71  65 S7        29.87R
LEE`S SUMMIT   CLEAR     82  73  74 S9        29.89S
ST JOSEPH      PTCLDY    81  71  71 S12       29.83F
CHILLICOTHE      N/A     80  74  81 S3        29.88S
KIRKSVILLE     CLEAR     78  75  90 S7        29.90S

$$
MOZ066>068-077>081-088>096-101>105-241100-
...SOUTHWEST MISSOURI...

CITY           SKY/WX    TMP DP  RH WIND       PRES   REMARKS
SPRINGFIELD    CLEAR     77  72  84 S7        29.94F
JOPLIN         CLOUDY    78  71  79 S8        29.93R
BRANSON        CLOUDY    73  72  94 CALM      29.97S

$$
MOZ032>034-039>042-045>050-055>058-069>072-241100-
...CENTRAL MISSOURI...

CITY           SKY/WX    TMP DP  RH WIND       PRES   REMARKS
COLUMBIA       CLEAR     78  74  87 S7        29.91F
JEFFERSON CITY CLEAR     79  74  84 SE5       29.90F
ROLLA          CLEAR     75  71  87 S9        29.94S
SEDALIA        CLEAR     80  75  84 S8        29.91F
WHITEMAN AFB   CLEAR     79  79 100 S7        29.89S FOG
OSAGE BEACH    CLEAR     76  72  87 CALM      29.93F

$$
MOZ051-052-059>065-241100-
...EAST CENTRAL MISSOURI...

CITY           SKY/WX    TMP DP  RH WIND       PRES   REMARKS
ST LOUIS INTL  MOCLDY    82  74  76 S7        29.92F
SPIRIT OF STL  CLEAR     77  76  96 CALM      29.91S
ST CHARLES     PTCLDY    77  77 100 E5        29.91S

$$
MOZ072>076-082>087-097>100-106>115-241100-
...SOUTH CENTRAL AND SOUTHEAST MISSOURI...

CITY           SKY/WX    TMP DP  RH WIND       PRES   REMARKS
CAPE GIRARDEAU CLEAR     77  75  93 CALM      29.93S FOG
FARMINGTON     CLEAR     74  73  97 CALM      29.96S
POPLAR BLUFF   PTCLDY    76  74  93 SE5       29.93R
WEST PLAINS    PTCLDY    73  69  87 CALM      29.98S

$$


USA.gov is the U.S. government's official web portal to all federal, state and local government web resources and services.